Regional Weather Roundup
Issued by NWS

Home | Current Version | Previous Version | Graphics & Text | Print | Product List | Glossary On
Versions: 1 2 3 4 5 6 7 8 9 10 11 12 13 14 15 16 17 18 19 20 21 22 23 24 25 26 27 28 29 30 31 32 33 34 35 36 37 38 39 40 41 42 43 44 45 46 47 48 49 50
000
ASUS43 KLSX 211657
RWRMO

WEATHER SUMMARY FOR MISSOURI
NATIONAL WEATHER SERVICE SPRINGFIELD MO
1100 AM CST TUE FEB 21 2017

NOTE: "FAIR" INDICATES FEW OR NO CLOUDS BELOW 12,000 FEET WITH NO
       SIGNIFICANT WEATHER AND/OR OBSTRUCTIONS TO VISIBILITY.
       CURRENT SKY AND/OR WEATHER CONDITIONS ARE NOT AVAILABLE FOR
       CHILLICOTHE AND FARMINGTON.

MOZ001>031-035>038-043-044-053-054-211800-
...NORTHERN AND WESTERN MISSOURI...

CITY           SKY/WX    TMP DP  RH WIND       PRES   REMARKS
KANSAS CTY INT MOSUNNY   61  45  55 NE3       30.00R
LEE`S SUMMIT   SUNNY     59  49  69 N6        30.00R
ST JOSEPH      SUNNY     58  45  62 NW8       30.02R
CHILLICOTHE      N/A     61  47  59 VRB3      29.99F

$$
MOZ066>068-077>081-088>096-101>105-211800-
...SOUTHWEST MISSOURI...

CITY           SKY/WX    TMP DP  RH WIND       PRES   REMARKS
SPRINGFIELD    CLOUDY    60  56  86 N8        29.93R
JOPLIN         MOSUNNY   64  56  75 N6        29.96R
BRANSON        CLOUDY    55  55 100 N8        29.92S FOG

$$
MOZ032>034-039>042-045>050-055>058-069>072-211800-
...CENTRAL MISSOURI...

CITY           SKY/WX    TMP DP  RH WIND       PRES   REMARKS
COLUMBIA       NOT AVBL
JEFFERSON CITY PTSUNNY   64  58  80 E7        29.94S
ROLLA          CLOUDY    60  60 100 NE10      29.92S FOG
SEDALIA        PTSUNNY   65  55  70 NE6       29.97S
WARRENSBURG    SUNNY     59  50  72 NW6       29.98S

$$
MOZ051-052-059>065-211800-
...EAST CENTRAL MISSOURI...

CITY           SKY/WX    TMP DP  RH WIND       PRES   REMARKS
ST LOUIS INTL  CLOUDY    63  59  87 E7        29.95R

$$
MOZ072>076-082>087-097>100-106>115-211800-
...SOUTH CENTRAL AND SOUTHEAST MISSOURI...

CITY           SKY/WX    TMP DP  RH WIND       PRES   REMARKS
CAPE GIRARDEAU CLOUDY    61  51  70 SE6       29.93R
POPLAR BLUFF   LGT RAIN  58  56  93 NE6       29.90S FOG

$$


USA.gov is the U.S. government's official web portal to all federal, state and local government web resources and services.